| time (UTC) | temp F | wind direction | speed MPH | gust MPH | rain 1hr in | rain 24hr in | rain mn in | humidity % | barometer mb |
| 20260504010004 | 48 | 0 | 0.0 | 2.0 | 0.00 | 0.00 | 0.00 | 64 | 1012.1 |
| 20260504004004 | 50 | 0 | 0.0 | 3.0 | 0.00 | 0.00 | 0.00 | 58 | 1012.0 |
| 20260504003004 | 51 | 214 | 1.0 | 3.0 | 0.00 | 0.00 | 0.00 | 58 | 1012.0 |
| 20260504002004 | 52 | 214 | 0.0 | 5.0 | 0.00 | 0.00 | 0.00 | 55 | 1011.9 |
| 20260503235004 | 53 | 215 | 1.0 | 5.0 | 0.00 | 0.00 | 0.00 | 49 | 1011.7 |
| 20260503234005 | 54 | 213 | 3.0 | 9.0 | 0.00 | 0.00 | 0.00 | 49 | 1011.7 |
| 20260503233004 | 54 | 223 | 2.0 | 10.0 | 0.00 | 0.00 | 0.00 | 48 | 1011.7 |
| 20260503232004 | 54 | 240 | 2.0 | 6.0 | 0.00 | 0.00 | 0.00 | 49 | 1011.8 |
| 20260503231004 | 54 | 264 | 3.0 | 7.0 | 0.00 | 0.00 | 0.00 | 47 | 1011.7 |
| 20260503230004 | 54 | 232 | 3.0 | 8.0 | 0.00 | 0.00 | 0.00 | 46 | 1011.7 |
| 20260503224004 | 55 | 232 | 5.0 | 13.0 | 0.00 | 0.00 | 0.00 | 44 | 1011.7 |
| 20260503222004 | 57 | 220 | 4.0 | 9.0 | 0.00 | 0.00 | 0.00 | 43 | 1011.6 |
| 20260503221004 | 57 | 261 | 4.0 | 14.0 | 0.00 | 0.00 | 0.00 | 44 | 1011.6 |
| 20260503220005 | 56 | 249 | 5.0 | 17.0 | 0.00 | 0.00 | 0.00 | 45 | 1011.7 |
| 20260503215004 | 55 | 220 | 4.0 | 9.0 | 0.00 | 0.00 | 0.00 | 48 | 1011.7 |
| 20260503214004 | 55 | 202 | 4.0 | 9.0 | 0.00 | 0.00 | 0.00 | 45 | 1011.8 |
| 20260503213004 | 55 | 218 | 4.0 | 10.0 | 0.00 | 0.00 | 0.00 | 45 | 1011.7 |
| 20260503212004 | 55 | 206 | 4.0 | 13.0 | 0.00 | 0.00 | 0.00 | 44 | 1011.6 |
| 20260503211004 | 55 | 239 | 4.0 | 12.0 | 0.00 | 0.00 | 0.00 | 43 | 1011.8 |
| 20260503210004 | 56 | 244 | 3.0 | 11.0 | 0.00 | 0.00 | 0.00 | 43 | 1011.7 |
| 20260503205004 | 56 | 221 | 4.0 | 9.0 | 0.00 | 0.00 | 0.00 | 44 | 1011.7 |
| 20260503204004 | 56 | 238 | 4.0 | 11.0 | 0.00 | 0.00 | 0.00 | 46 | 1011.8 |
| 20260503203004 | 55 | 231 | 6.0 | 12.0 | 0.00 | 0.00 | 0.00 | 44 | 1011.9 |
| 20260503201004 | 55 | 216 | 6.0 | 16.0 | 0.00 | 0.00 | 0.00 | 44 | 1012.0 |
| 20260503200004 | 54 | 251 | 6.0 | 16.0 | 0.00 | 0.00 | 0.00 | 44 | 1012.3 |
| 20260503195004 | 55 | 253 | 6.0 | 22.0 | 0.00 | 0.00 | 0.00 | 43 | 1012.4 |
| 20260503194004 | 55 | 249 | 6.0 | 13.0 | 0.00 | 0.00 | 0.00 | 46 | 1012.3 |
| 20260503193004 | 55 | 259 | 5.0 | 18.0 | 0.00 | 0.00 | 0.00 | 44 | 1012.5 |
| 20260503192004 | 55 | 228 | 4.0 | 9.0 | 0.00 | 0.00 | 0.00 | 47 | 1012.5 |
| 20260503190004 | 54 | 242 | 5.0 | 12.0 | 0.00 | 0.00 | 0.00 | 45 | 1012.7 |
| 20260503185004 | 55 | 223 | 3.0 | 11.0 | 0.00 | 0.00 | 0.00 | 44 | 1012.8 |
| 20260503184004 | 54 | 232 | 5.0 | 12.0 | 0.00 | 0.00 | 0.00 | 47 | 1013.0 |
| 20260503183004 | 54 | 227 | 6.0 | 14.0 | 0.00 | 0.00 | 0.00 | 43 | 1013.1 |
| 20260503181004 | 55 | 228 | 5.0 | 12.0 | 0.00 | 0.00 | 0.00 | 45 | 1013.3 |
| 20260503180004 | 55 | 201 | 5.0 | 10.0 | 0.00 | 0.00 | 0.00 | 46 | 1013.1 |
| 20260503175004 | 55 | 235 | 5.0 | 14.0 | 0.00 | 0.00 | 0.00 | 42 | 1013.5 |
| 20260503174004 | 55 | 233 | 6.0 | 13.0 | 0.00 | 0.00 | 0.00 | 45 | 1013.5 |
| 20260503172004 | 54 | 224 | 5.0 | 13.0 | 0.00 | 0.00 | 0.00 | 45 | 1013.6 |
| 20260503151004 | 48 | 269 | 6.0 | 17.0 | 0.00 | 0.00 | 0.00 | 53 | 1014.9 |
| 20260503131004 | 42 | 228 | 4.0 | 10.0 | 0.00 | 0.00 | 0.00 | 78 | 1015.3 |
| 20260503081004 | 29 | 0 | 0.0 | 0.0 | 0.00 | 0.00 | 0.00 | 90 | 1014.7 |
| 20260503072004 | 32 | 0 | 0.0 | 0.0 | 0.00 | 0.00 | 0.00 | 87 | 1014.5 |
| 20260503071004 | 32 | 0 | 0.0 | 0.0 | 0.00 | 0.00 | 0.00 | 86 | 1014.4 |
| 20260503055004 | 35 | 0 | 0.0 | 0.0 | 0.00 | 0.00 | 0.00 | 82 | 1014.7 |
| 20260503054004 | 36 | 0 | 0.0 | 0.0 | 0.00 | 0.00 | 0.00 | 81 | 1014.7 |
| 20260503053004 | 36 | 0 | 0.0 | 0.0 | 0.00 | 0.00 | 0.00 | 81 | 1014.7 |
| 20260503052003 | 36 | 0 | 0.0 | 2.0 | 0.00 | 0.00 | 0.00 | 80 | 1014.8 |
| 20260503051004 | 36 | 0 | 0.0 | 1.0 | 0.00 | 0.00 | 0.00 | 80 | 1014.9 |
| 20260503044004 | 36 | 246 | 1.0 | 4.0 | 0.00 | 0.00 | 0.00 | 79 | 1015.1 |
| 20260503042004 | 36 | 0 | 0.0 | 2.0 | 0.00 | 0.00 | 0.00 | 79 | 1015.1 |
| 20260503041004 | 36 | 246 | 1.0 | 3.0 | 0.00 | 0.00 | 0.00 | 78 | 1015.2 |
| 20260503040005 | 36 | 0 | 0.0 | 3.0 | 0.00 | 0.00 | 0.00 | 78 | 1015.2 |
| 20260503035004 | 36 | 0 | 0.0 | 0.0 | 0.00 | 0.00 | 0.00 | 78 | 1015.2 |
| 20260503034004 | 36 | 0 | 0.0 | 1.0 | 0.00 | 0.00 | 0.00 | 77 | 1015.2 |
| 20260503033004 | 37 | 0 | 0.0 | 0.0 | 0.00 | 0.00 | 0.00 | 77 | 1015.3 |
| 20260503032004 | 37 | 0 | 0.0 | 0.0 | 0.00 | 0.00 | 0.00 | 76 | 1015.3 |
| 20260503031004 | 37 | 0 | 0.0 | 1.0 | 0.00 | 0.00 | 0.00 | 76 | 1015.3 |
| 20260503030004 | 37 | 0 | 0.0 | 2.0 | 0.00 | 0.00 | 0.00 | 76 | 1015.3 |
| 20260503025004 | 37 | 0 | 0.0 | 3.0 | 0.00 | 0.00 | 0.00 | 75 | 1015.4 |
| 20260503024004 | 38 | 245 | 1.0 | 2.0 | 0.00 | 0.00 | 0.00 | 73 | 1015.4 |
| 20260503023004 | 38 | 246 | 1.0 | 3.0 | 0.00 | 0.00 | 0.00 | 73 | 1015.5 |
| 20260503022004 | 38 | 246 | 1.0 | 4.0 | 0.00 | 0.00 | 0.00 | 72 | 1015.5 |
| 20260503021004 | 38 | 246 | 1.0 | 4.0 | 0.00 | 0.00 | 0.00 | 70 | 1015.5 |
| 20260503020004 | 38 | 246 | 0.0 | 4.0 | 0.00 | 0.00 | 0.00 | 69 | 1015.5 |
| 20260503015004 | 38 | 246 | 0.0 | 3.0 | 0.00 | 0.00 | 0.00 | 70 | 1015.3 |
| 20260503014004 | 38 | 0 | 0.0 | 3.0 | 0.00 | 0.00 | 0.00 | 70 | 1015.4 |
| 20260503012004 | 39 | 246 | 1.0 | 4.0 | 0.00 | 0.00 | 0.00 | 68 | 1015.3 |
| 20260503011004 | 39 | 246 | 1.0 | 5.0 | 0.00 | 0.00 | 0.00 | 67 | 1015.2 |